Van Nuys, CA

5:56 AM PST on December 14, 2017 (GMT -0800)
Van Nuys

Weather History for KVNY - June, 2014

Change the Weather History Date:

Saturday, June 7, 2014

  Actual Average Record
Temperature  
Mean Temperature 68 °F -  
Max Temperature 81 °F 76 °F 96 °F (2015)
Min Temperature 57 °F 55 °F 52 °F (1998)
Cooling Degree Days 2    
Growing Degree Days 18 (Base 50)    
Moisture  
Dew Point 54 °F    
Average Humidity 66    
Maximum Humidity 88    
Minimum Humidity 43    
Precipitation  
Precipitation 0.00 in - - ()
Sea Level Pressure  
Sea Level Pressure 29.80 in    
Wind  
Wind Speed 4 mph (SE)    
Max Wind Speed 12 mph    
Max Gust Speed -    
Visibility 8 miles    
Events      
Averages and records for this station are not official NWS values.
T = Trace of Precipitation, MM = Missing Value Source: NWS Daily Summary

Daily Weather History Graph

Daily Weather History Graph

Search for Another Location

Airport or City:

Trip Planner

Search our weather history database for the weather conditions in past years. The results will help you decide how hot, cold, wet, or windy it might be!

Date:

Astronomy

Jun. 07, 2014 Rise Set
Actual Time 5:41 AM PDT 8:04 PM PDT
Civil Twilight 5:12 AM PDT 8:33 PM PDT
Nautical Twilight 4:37 AM PDT 9:08 PM PDT
Astronomical Twilight 3:58 AM PDT 9:48 PM PDT
Moon 2:39 PM PDT (6/7) 1:51 AM PDT (6/7)
Length of Visible Light 15h 20m
Length of Day
14h 22m
Waxing Gibbous, 69% of the Moon is Illuminated
Jun 7
Waxing Gibbous
Jun 12
Full
Jun 19
Last Quarter
Jun 27
New
Jul 5
First Quarter

Hourly Weather History & Observations

Time (PDT) Temp. Dew Point Humidity Pressure Visibility Wind Dir Wind Speed Gust Speed Precip Events Conditions
12:51 AM 59.0 °F 53.1 °F 81% 29.82 in 10.0 mi SSE 4.6 mph - N/A   Clear
1:27 AM 57.2 °F 53.6 °F 88% 29.84 in 9.0 mi SSE 4.6 mph - N/A   Mostly Cloudy
1:39 AM 59.0 °F 53.6 °F 82% 29.84 in 9.0 mi East 3.5 mph - N/A   Overcast
1:51 AM 59.0 °F 53.1 °F 81% 29.81 in 8.0 mi ESE 5.8 mph - N/A   Overcast
2:51 AM 59.0 °F 54.0 °F 83% 29.80 in 7.0 mi Calm Calm - N/A   Overcast
3:51 AM 59.0 °F 54.0 °F 83% 29.79 in 6.0 mi Calm Calm - N/A   Haze
5:29 AM 60.8 °F 53.6 °F 77% 29.81 in 7.0 mi South 3.5 mph - N/A   Overcast
7:51 AM 60.1 °F 54.0 °F 80% 29.83 in 5.0 mi SSE 4.6 mph - N/A   Haze
8:51 AM 62.1 °F 54.0 °F 75% 29.84 in 5.0 mi SE 4.6 mph - N/A   Haze
9:51 AM 63.0 °F 54.0 °F 72% 29.82 in 6.0 mi Calm Calm - N/A   Haze
10:26 AM 64.4 °F 53.6 °F 68% 29.84 in 6.0 mi ESE 4.6 mph - N/A   Haze
10:33 AM 64.4 °F 53.6 °F 68% 29.84 in 6.0 mi Calm Calm - N/A   Haze
10:51 AM 66.9 °F 54.0 °F 63% 29.83 in 6.0 mi Calm Calm - N/A   Haze
10:58 AM 66.2 °F 53.6 °F 64% 29.84 in 6.0 mi Variable 3.5 mph - N/A   Haze
11:51 AM 70.0 °F 55.0 °F 59% 29.82 in 7.0 mi Calm Calm - N/A   Clear
12:51 PM 73.9 °F 54.0 °F 50% 29.80 in 8.0 mi Variable 3.5 mph - N/A   Clear
1:51 PM 77.0 °F 54.0 °F 45% 29.78 in 9.0 mi Variable 3.5 mph - N/A   Clear
3:51 PM 78.1 °F 55.0 °F 45% 29.75 in 10.0 mi SE 11.5 mph - N/A   Clear
4:51 PM 78.1 °F 55.0 °F 45% 29.74 in 10.0 mi SE 9.2 mph - N/A   Clear
5:51 PM 77.0 °F 53.1 °F 43% 29.73 in 10.0 mi SE 8.1 mph - N/A   Clear
6:51 PM 75.0 °F 51.1 °F 43% 29.74 in 10.0 mi SE 8.1 mph - N/A   Clear
7:51 PM 71.1 °F 54.0 °F 55% 29.76 in 10.0 mi SE 6.9 mph - N/A   Clear
8:51 PM 69.1 °F 54.0 °F 58% 29.77 in 10.0 mi ESE 6.9 mph - N/A   Clear
9:51 PM 66.9 °F 54.0 °F 63% 29.79 in 10.0 mi ESE 4.6 mph - N/A   Clear
10:51 PM 64.9 °F 54.0 °F 68% 29.80 in 10.0 mi Variable 4.6 mph - N/A   Clear
11:51 PM 64.0 °F 55.0 °F 73% 29.80 in 10.0 mi ESE 4.6 mph - N/A   Clear